CW9244 Weather Reports


Display with metric or nautical units.
time (UTC)temp
F
wind
direction
speed
MPH
gust
MPH
rain 1hr
in
rain 24hr
in
rain mn
in
humidity
%
barometer
mb
20260831060626 71 292 0.0 1.0 0.00 0.02 0.00 89 1034.5
20260831055624 71 292 0.0 0.0 0.00 0.02 0.00 89 1034.7
20260831054626 71 292 1.0 1.0 0.00 0.02 0.00 89 1034.6
20260831052626 71 295 1.0 2.0 0.00 0.02 0.00 90 1034.5
20260831051627 71 315 0.0 1.0 0.00 0.02 0.00 90 1034.5
20260831050725 71 315 0.0 2.0 0.00 0.02 0.00 91 1034.5
20260831044725 72 315 0.0 0.0 0.00 0.02 0.00 91 1034.3
20260831043824 72 315 0.0 0.0 0.00 0.02 0.00 91 1034.2
20260831042826 72 292 0.0 1.0 0.00 0.02 0.00 91 1034.2
20260831041827 72 292 0.0 0.0 0.00 0.02 0.00 91 1034.2
20260831040825 72 292 0.0 1.0 0.00 0.02 0.00 91 1034.2
20260831035915 72 315 1.0 2.0 0.00 0.02 0.02 91 1034.2
20260831034915 72 315 0.0 1.0 0.00 0.02 0.02 91 1034.2
20260831033916 72 315 0.0 1.0 0.00 0.02 0.02 91 1034.3
20260831032915 72 292 0.0 0.0 0.00 0.02 0.02 91 1034.3
20260831031914 72 292 0.0 0.0 0.00 0.02 0.02 91 1034.4
20260831031013 73 292 0.0 0.0 0.00 0.02 0.02 91 1034.6
20260831030015 73 292 0.0 0.0 0.01 0.02 0.02 91 1034.7
20260831024013 73 292 0.0 0.0 0.02 0.02 0.02 91 1035.0
20260831022013 73 292 0.0 1.0 0.02 0.02 0.02 90 1034.7
20260831021015 74 270 0.0 1.0 0.02 0.02 0.02 90 1034.9
20260831020112 73 112 0.0 0.0 0.01 0.01 0.01 89 1035.0
20260831014114 73 112 0.0 0.0 0.00 0.00 0.00 89 1034.9
20260831013115 73 112 0.0 0.0 0.00 0.00 0.00 88 1034.6
20260831012116 74 112 0.0 0.0 0.00 0.00 0.00 88 1034.6
20260831011213 74 202 0.0 0.0 0.00 0.00 0.00 87 1034.7
20260831010214 74 247 0.0 0.0 0.00 0.00 0.00 87 1034.6
20260831005215 74 247 0.0 1.0 0.00 0.00 0.00 86 1034.5
20260831004313 74 315 0.0 0.0 0.00 0.00 0.00 86 1034.2
20260831003314 74 225 0.0 0.0 0.00 0.00 0.00 86 1034.1
20260831002413 74 225 1.0 1.0 0.00 0.00 0.00 86 1034.0
20260831001413 74 270 0.0 0.0 0.00 0.00 0.00 85 1034.0
20260831000414 74 247 0.0 1.0 0.00 0.00 0.00 85 1034.0
20260830235414 74 327 0.0 1.0 0.00 0.00 0.00 84 1033.9
20260830234413 74 202 0.0 0.0 0.00 0.00 0.00 84 1034.0
20260830233414 74 135 0.0 1.0 0.00 0.00 0.00 84 1033.7
20260830232413 74 229 0.0 2.0 0.00 0.00 0.00 83 1033.8
20260830230515 75 67 0.0 0.0 0.00 0.00 0.00 82 1033.8
20260830224516 75 67 0.0 1.0 0.00 0.00 0.00 81 1033.8
20260830223514 75 292 0.0 0.0 0.00 0.00 0.00 80 1033.9
20260830222612 75 208 0.0 2.0 0.00 0.00 0.00 80 1034.1
20260830221612 76 228 0.0 2.0 0.00 0.00 0.00 79 1034.1
20260830220616 76 201 0.0 3.0 0.00 0.00 0.00 78 1034.0
20260830215617 76 202 0.0 1.0 0.00 0.00 0.00 77 1034.0
20260830214613 76 218 0.0 2.0 0.00 0.00 0.00 76 1034.0
20260830213614 77 157 0.0 1.0 0.00 0.00 0.00 76 1034.0
20260830212613 77 133 1.0 3.0 0.00 0.00 0.00 75 1034.0
20260830211713 77 202 0.0 2.0 0.00 0.00 0.00 74 1034.0
20260830210812 77 88 0.0 1.0 0.00 0.00 0.00 73 1034.2
20260830203815 77 225 0.0 1.0 0.00 0.00 0.00 72 1034.2
20260830201914 79 225 0.0 0.0 0.00 0.00 0.00 69 1034.5
20260830195014 80 224 0.0 1.0 0.00 0.00 0.00 65 1034.6
20260830194015 80 67 1.0 3.0 0.00 0.00 0.00 65 1034.5
20260830193113 80 67 0.0 0.0 0.00 0.00 0.00 65 1034.9
20260830192117 80 67 0.0 0.0 0.00 0.00 0.00 65 1035.0
20260830191114 80 334 0.0 1.0 0.00 0.00 0.00 63 1035.1
20260830185114 81 67 0.0 0.0 0.00 0.00 0.00 62 1035.3
20260830184113 80 180 0.0 0.0 0.00 0.00 0.00 61 1035.5
20260830183115 80 202 1.0 2.0 0.00 0.00 0.00 60 1035.5
20260830182212 81 202 0.0 0.0 0.00 0.00 0.00 58 1035.7
20260830181312 81 135 0.0 0.0 0.00 0.00 0.00 56 1035.7
20260830180313 82 247 0.0 0.0 0.00 0.00 0.00 53 1035.9
20260830175412 84 247 0.0 0.0 0.00 0.00 0.00 51 1035.9
20260830174414 84 247 0.0 1.0 0.00 0.00 0.00 51 1035.9
20260830173415 83 247 0.0 3.0 0.00 0.00 0.00 53 1035.8
20260830172514 83 247 0.0 1.0 0.00 0.00 0.00 52 1035.9
20260830170514 83 247 0.0 0.0 0.00 0.00 0.00 53 1036.2
20260830165612 84 247 0.0 0.0 0.00 0.00 0.00 51 1036.4
20260830164612 84 247 0.0 3.0 0.00 0.00 0.00 50 1036.3
20260830163616 81 247 0.0 1.0 0.00 0.00 0.00 51 1036.5
20260830162612 83 247 1.0 4.0 0.00 0.00 0.00 48 1036.5
20260830161712 84 247 0.0 1.0 0.00 0.00 0.00 46 1036.7
20260830160715 83 247 0.0 1.0 0.00 0.00 0.00 44 1036.6
20260830153715 84 247 0.0 1.0 0.00 0.00 0.00 45 1037.0
20260830152714 83 247 0.0 2.0 0.00 0.00 0.00 45 1037.0
20260830151713 83 247 0.0 1.0 0.00 0.00 0.00 46 1037.1
20260830150714 83 247 0.0 1.0 0.00 0.00 0.00 46 1037.2
20260830145716 83 247 0.0 0.0 0.00 0.00 0.00 48 1037.2
20260830144715 82 247 0.0 0.0 0.00 0.00 0.00 50 1037.4
20260830143715 83 247 0.0 0.0 0.00 0.00 0.00 50 1037.5
20260830142814 81 247 0.0 0.0 0.00 0.00 0.00 51 1037.5
20260830140916 80 247 0.0 0.0 0.00 0.00 0.00 54 1037.7
20260830135913 79 247 0.0 1.0 0.00 0.00 0.00 57 1038.0
20260830133913 78 247 0.0 1.0 0.00 0.00 0.00 59 1038.0
20260830132912 76 247 0.0 1.0 0.00 0.00 0.00 62 1038.2
20260830131914 75 247 0.0 0.0 0.00 0.00 0.00 68 1038.2
20260830125913 71 247 0.0 0.0 0.00 0.00 0.00 81 1038.3
20260830124915 70 247 0.0 0.0 0.00 0.00 0.00 87 1038.6
20260830122914 69 270 0.0 0.0 0.00 0.00 0.00 88 1038.6
20260830122012 68 337 0.0 0.0 0.00 0.00 0.00 89 1038.7
20260830121014 67 337 0.0 0.0 0.00 0.00 0.00 88 1038.6
20260830120014 66 337 0.0 0.0 0.00 0.00 0.00 89 1038.6
20260830115013 66 292 0.0 0.0 0.00 0.00 0.00 91 1038.7
20260830114013 65 292 0.0 0.0 0.00 0.00 0.00 93 1038.7
20260830113015 64 292 0.0 0.0 0.00 0.00 0.00 93 1038.8
20260830111014 63 292 0.0 0.0 0.00 0.00 0.00 93 1038.6
20260830110112 63 292 0.0 0.0 0.00 0.00 0.00 93 1038.4
20260830105112 62 292 0.0 0.0 0.00 0.00 0.00 93 1038.6
20260830103115 62 292 0.0 0.0 0.00 0.00 0.00 92 1038.5
20260830102213 62 292 0.0 0.0 0.00 0.00 0.00 92 1038.6
20260830101213 62 292 0.0 0.0 0.00 0.00 0.00 92 1038.4
20260830100212 62 292 0.0 0.0 0.00 0.00 0.00 92 1038.3
20260830095215 62 292 0.0 0.0 0.00 0.00 0.00 92 1038.7
20260830094213 62 292 0.0 0.0 0.00 0.00 0.00 92 1038.5
20260830093213 62 292 0.0 0.0 0.00 0.00 0.00 92 1038.4
20260830091312 62 292 0.0 0.0 0.00 0.00 0.00 92 1038.5
20260830090412 62 292 0.0 0.0 0.00 0.00 0.00 92 1038.5
20260830085415 62 292 0.0 0.0 0.00 0.00 0.00 92 1038.5
20260830084413 63 292 0.0 0.0 0.00 0.00 0.00 92 1038.6
20260830083414 63 292 0.0 0.0 0.00 0.00 0.00 92 1038.7
20260830082414 63 292 0.0 0.0 0.00 0.00 0.00 93 1038.7
20260830081414 63 292 0.0 0.0 0.00 0.00 0.00 93 1038.5
20260830080413 62 292 0.0 0.0 0.00 0.00 0.00 93 1038.7
20260830075512 62 292 0.0 0.0 0.00 0.00 0.00 93 1038.9
20260830074515 61 292 0.0 0.0 0.00 0.00 0.00 93 1038.8
20260830073612 61 292 0.0 0.0 0.00 0.00 0.00 92 1038.8
20260830071613 61 292 0.0 0.0 0.00 0.00 0.00 92 1039.0
20260830070612 61 292 0.0 0.0 0.00 0.00 0.00 92 1039.0
20260830065613 61 292 0.0 0.0 0.00 0.00 0.00 92 1039.0
20260830064613 61 292 0.0 0.0 0.00 0.00 0.00 92 1038.8
20260830063711 61 292 0.0 0.0 0.00 0.00 0.00 92 1038.8
20260830062718 61 292 0.0 0.0 0.00 0.00 0.00 92 1038.8
20260830061814 60 292 0.0 0.0 0.00 0.00 0.00 92 1038.8